| time (UTC) | temp F | wind direction | speed knots | gust knots | rain 1hr in | rain 24hr in | rain mn in | humidity % | barometer mb |
| 20260506202923 | 52 | 176 | 0.0 | 0.0 | 0.00 | 0.04 | 0.01 | 59 | 1012.0 |
| 20260506201912 | 52 | 176 | 0.0 | 0.0 | 0.00 | 0.04 | 0.01 | 58 | 1012.0 |
| 20260506200922 | 53 | 176 | 0.0 | 0.0 | 0.00 | 0.04 | 0.01 | 55 | 1011.9 |
| 20260506195925 | 54 | 176 | 0.0 | 0.0 | 0.00 | 0.04 | 0.01 | 57 | 1011.9 |
| 20260506193929 | 55 | 176 | 0.0 | 0.0 | 0.00 | 0.04 | 0.01 | 55 | 1011.7 |
| 20260506192916 | 56 | 176 | 0.0 | 0.0 | 0.00 | 0.04 | 0.01 | 53 | 1011.7 |
| 20260506191925 | 57 | 176 | 0.0 | 0.0 | 0.00 | 0.04 | 0.01 | 52 | 1011.7 |
| 20260506190913 | 58 | 176 | 0.0 | 0.0 | 0.00 | 0.04 | 0.01 | 52 | 1011.6 |
| 20260506185915 | 58 | 176 | 0.0 | 0.0 | 0.00 | 0.04 | 0.01 | 52 | 1011.4 |
| 20260506184927 | 60 | 176 | 0.0 | 0.0 | 0.00 | 0.04 | 0.01 | 50 | 1011.3 |
| 20260506183916 | 60 | 176 | 0.0 | 0.0 | 0.00 | 0.04 | 0.01 | 48 | 1011.3 |
| 20260506182919 | 61 | 176 | 0.0 | 0.0 | 0.00 | 0.04 | 0.01 | 48 | 1011.3 |
| 20260506181928 | 62 | 176 | 0.0 | 0.0 | 0.00 | 0.04 | 0.01 | 46 | 1011.2 |
| 20260506180917 | 61 | 176 | 0.0 | 0.0 | 0.00 | 0.04 | 0.01 | 47 | 1011.2 |
| 20260506175920 | 61 | 176 | 0.0 | 0.0 | 0.00 | 0.04 | 0.01 | 44 | 1011.1 |
| 20260506174928 | 61 | 176 | 0.0 | 0.0 | 0.00 | 0.04 | 0.01 | 44 | 1011.2 |
| 20260506173917 | 61 | 176 | 0.0 | 0.0 | 0.00 | 0.04 | 0.01 | 45 | 1011.2 |
| 20260506172920 | 62 | 176 | 0.0 | 2.6 | 0.00 | 0.04 | 0.01 | 44 | 1011.3 |
| 20260506171930 | 62 | 176 | 0.9 | 5.2 | 0.00 | 0.04 | 0.01 | 42 | 1011.2 |
| 20260506170917 | 63 | 176 | 1.7 | 4.3 | 0.00 | 0.04 | 0.01 | 41 | 1011.3 |
| 20260506165919 | 64 | 176 | 0.0 | 3.5 | 0.00 | 0.04 | 0.01 | 42 | 1011.2 |
| 20260506164926 | 65 | 176 | 0.0 | 0.0 | 0.00 | 0.04 | 0.01 | 39 | 1011.3 |
| 20260506163913 | 64 | 176 | 0.0 | 4.3 | 0.00 | 0.04 | 0.01 | 40 | 1011.3 |
| 20260506162920 | 65 | 176 | 0.0 | 5.2 | 0.00 | 0.04 | 0.01 | 40 | 1011.3 |
| 20260506161929 | 65 | 176 | 0.9 | 5.2 | 0.00 | 0.04 | 0.01 | 42 | 1011.3 |
| 20260506160919 | 65 | 175 | 0.0 | 3.5 | 0.00 | 0.04 | 0.01 | 43 | 1011.3 |
| 20260506155922 | 64 | 175 | 0.9 | 6.1 | 0.00 | 0.04 | 0.01 | 44 | 1011.3 |
| 20260506154912 | 62 | 173 | 0.0 | 3.5 | 0.00 | 0.04 | 0.01 | 44 | 1011.4 |
| 20260506153921 | 62 | 173 | 0.0 | 0.0 | 0.00 | 0.04 | 0.01 | 43 | 1011.3 |
| 20260506153006 | 64 | 173 | 1.7 | 6.1 | 0.00 | 0.04 | 0.01 | 41 | 1011.6 |
| 20260506151929 | 63 | 164 | 0.9 | 7.8 | 0.00 | 0.04 | 0.01 | 43 | 1011.6 |
| 20260506150918 | 64 | 161 | 0.9 | 4.3 | 0.00 | 0.04 | 0.01 | 44 | 1011.7 |
| 20260506145926 | 64 | 161 | 1.7 | 6.1 | 0.00 | 0.04 | 0.01 | 43 | 1011.9 |
| 20260506144914 | 63 | 157 | 0.9 | 4.3 | 0.00 | 0.04 | 0.01 | 44 | 1011.9 |
| 20260506143922 | 63 | 157 | 0.9 | 6.1 | 0.00 | 0.04 | 0.01 | 44 | 1012.0 |
| 20260506142945 | 63 | 155 | 0.0 | 5.2 | 0.00 | 0.04 | 0.01 | 46 | 1012.1 |
| 20260506141933 | 62 | 153 | 1.7 | 4.3 | 0.00 | 0.04 | 0.01 | 48 | 1012.2 |
| 20260506140943 | 61 | 146 | 0.0 | 2.6 | 0.00 | 0.04 | 0.01 | 50 | 1012.4 |
| 20260506135945 | 60 | 148 | 0.0 | 0.0 | 0.00 | 0.04 | 0.01 | 50 | 1012.6 |
| 20260506134932 | 60 | 150 | 0.0 | 1.7 | 0.00 | 0.04 | 0.01 | 50 | 1012.6 |
| 20260506133939 | 60 | 151 | 0.0 | 5.2 | 0.00 | 0.04 | 0.01 | 50 | 1012.6 |
| 20260506132942 | 59 | 153 | 0.0 | 0.0 | 0.00 | 0.04 | 0.01 | 53 | 1012.7 |
| 20260506131931 | 57 | 153 | 0.0 | 2.6 | 0.00 | 0.04 | 0.01 | 53 | 1012.7 |
| 20260506130942 | 60 | 154 | 0.0 | 4.3 | 0.00 | 0.04 | 0.01 | 50 | 1012.8 |
| 20260506125943 | 59 | 153 | 0.0 | 4.3 | 0.00 | 0.04 | 0.01 | 52 | 1012.9 |
| 20260506124951 | 57 | 148 | 0.0 | 0.0 | 0.00 | 0.04 | 0.01 | 57 | 1013.0 |
| 20260506123939 | 58 | 148 | 0.0 | 5.2 | 0.00 | 0.04 | 0.01 | 52 | 1013.2 |
| 20260506122942 | 59 | 134 | 0.0 | 4.3 | 0.00 | 0.04 | 0.01 | 54 | 1013.2 |
| 20260506121934 | 57 | 78 | 0.0 | 3.5 | 0.00 | 0.04 | 0.01 | 56 | 1013.3 |
| 20260506120943 | 56 | 77 | 0.0 | 0.0 | 0.00 | 0.04 | 0.01 | 59 | 1013.4 |
| 20260506115947 | 56 | 74 | 0.0 | 0.0 | 0.00 | 0.04 | 0.01 | 58 | 1013.4 |
| 20260506114951 | 56 | 74 | 0.0 | 0.0 | 0.00 | 0.04 | 0.01 | 56 | 1013.4 |
| 20260506113938 | 56 | 74 | 0.0 | 2.6 | 0.00 | 0.04 | 0.01 | 57 | 1013.5 |
| 20260506112941 | 57 | 148 | 0.0 | 2.6 | 0.00 | 0.04 | 0.01 | 53 | 1013.5 |
| 20260506111934 | 59 | 195 | 0.9 | 3.5 | 0.00 | 0.04 | 0.01 | 54 | 1013.6 |
| 20260506110943 | 58 | 199 | 0.0 | 4.3 | 0.00 | 0.04 | 0.01 | 54 | 1013.6 |
| 20260506105946 | 57 | 165 | 0.9 | 4.3 | 0.00 | 0.04 | 0.01 | 59 | 1013.7 |
| 20260506104935 | 57 | 166 | 0.9 | 4.3 | 0.00 | 0.04 | 0.01 | 57 | 1013.8 |
| 20260506103944 | 57 | 150 | 0.9 | 6.1 | 0.00 | 0.04 | 0.01 | 55 | 1013.8 |
| 20260506102945 | 58 | 97 | 0.0 | 0.0 | 0.00 | 0.04 | 0.01 | 53 | 1013.8 |
| 20260506101938 | 57 | 94 | 0.0 | 0.0 | 0.00 | 0.04 | 0.01 | 58 | 1013.8 |
| 20260506100949 | 55 | 38 | 0.0 | 0.0 | 0.00 | 0.04 | 0.01 | 59 | 1014.0 |
| 20260506095948 | 55 | 38 | 0.0 | 0.0 | 0.00 | 0.04 | 0.01 | 60 | 1014.0 |
| 20260506094936 | 55 | 38 | 0.0 | 0.0 | 0.00 | 0.04 | 0.01 | 59 | 1014.1 |
| 20260506093946 | 55 | 38 | 0.0 | 0.0 | 0.04 | 0.04 | 0.01 | 59 | 1014.0 |
| 20260506092931 | 56 | 38 | 0.0 | 0.0 | 0.04 | 0.04 | 0.01 | 56 | 1014.0 |
| 20260506091936 | 56 | 39 | 0.0 | 1.7 | 0.04 | 0.04 | 0.01 | 56 | 1013.9 |
| 20260506090948 | 55 | 42 | 0.0 | 0.0 | 0.04 | 0.04 | 0.01 | 58 | 1014.0 |
| 20260506085950 | 54 | 42 | 0.0 | 0.0 | 0.04 | 0.04 | 0.01 | 58 | 1014.0 |
| 20260506084939 | 53 | 43 | 0.0 | 0.0 | 0.04 | 0.04 | 0.01 | 61 | 1013.8 |
| 20260506083932 | 52 | 43 | 0.0 | 0.0 | 0.00 | 0.00 | 0.00 | 61 | 1013.8 |
| 20260506082933 | 52 | 44 | 0.0 | 0.0 | 0.00 | 0.00 | 0.00 | 63 | 1013.8 |
| 20260506081941 | 51 | 44 | 0.9 | 5.2 | 0.00 | 0.00 | 0.00 | 67 | 1013.9 |
| 20260506080950 | 50 | 34 | 0.0 | 0.0 | 0.00 | 0.00 | 0.00 | 68 | 1013.8 |
| 20260506072949 | 48 | 22 | 0.0 | 3.5 | 0.00 | 0.00 | 0.00 | 74 | 1013.7 |
| 20260506071937 | 47 | 51 | 0.9 | 7.0 | 0.00 | 0.00 | 0.00 | 74 | 1013.6 |
| 20260506070946 | 47 | 32 | 0.0 | 4.3 | 0.00 | 0.00 | 0.00 | 75 | 1013.6 |
| 20260506061933 | 44 | 36 | 0.0 | 0.0 | 0.00 | 0.00 | 0.00 | 79 | 1013.3 |
| 20260506060940 | 44 | 34 | 0.0 | 0.0 | 0.00 | 0.00 | 0.00 | 80 | 1013.3 |
| 20260506050946 | 41 | 32 | 0.0 | 0.0 | 0.00 | 0.00 | 0.00 | 81 | 1012.8 |
| 20260506044933 | 41 | 32 | 0.0 | 1.7 | 0.00 | 0.00 | 0.00 | 82 | 1012.7 |
| 20260506043947 | 41 | 29 | 0.0 | 0.0 | 0.00 | 0.00 | 0.00 | 81 | 1012.8 |
| 20260506042947 | 41 | 29 | 0.0 | 0.0 | 0.00 | 0.00 | 0.00 | 81 | 1012.8 |
| 20260506041935 | 42 | 28 | 0.0 | 0.0 | 0.00 | 0.00 | 0.00 | 80 | 1012.8 |
| 20260506040944 | 42 | 29 | 0.0 | 0.0 | 0.00 | 0.00 | 0.00 | 80 | 1012.8 |
| 20260506035945 | 42 | 30 | 0.0 | 0.0 | 0.00 | 0.00 | 0.00 | 80 | 1012.9 |
| 20260506034950 | 42 | 31 | 0.0 | 0.0 | 0.00 | 0.00 | 0.00 | 79 | 1013.0 |
| 20260506033944 | 42 | 29 | 0.0 | 0.0 | 0.00 | 0.00 | 0.00 | 79 | 1013.0 |
| 20260506032946 | 43 | 26 | 0.0 | 0.0 | 0.00 | 0.00 | 0.00 | 78 | 1012.9 |
| 20260506031932 | 43 | 28 | 0.0 | 3.5 | 0.00 | 0.00 | 0.00 | 78 | 1013.0 |
| 20260506030942 | 43 | 342 | 0.0 | 0.0 | 0.00 | 0.00 | 0.00 | 78 | 1013.2 |
| 20260506025950 | 43 | 36 | 0.0 | 0.0 | 0.00 | 0.00 | 0.00 | 78 | 1013.1 |
| 20260506024942 | 43 | 34 | 0.0 | 0.0 | 0.00 | 0.00 | 0.00 | 77 | 1013.1 |
| 20260506023951 | 43 | 40 | 0.0 | 2.6 | 0.00 | 0.00 | 0.00 | 77 | 1013.3 |
| 20260506022950 | 43 | 28 | 0.0 | 2.6 | 0.00 | 0.00 | 0.00 | 76 | 1013.3 |
| 20260506021953 | 44 | 335 | 0.9 | 3.5 | 0.00 | 0.00 | 0.00 | 76 | 1013.2 |
| 20260506020925 | 44 | 347 | 0.0 | 2.6 | 0.00 | 0.00 | 0.00 | 76 | 1013.3 |
| 20260506015925 | 44 | 38 | 0.0 | 2.6 | 0.00 | 0.00 | 0.00 | 75 | 1013.3 |
| 20260506014923 | 44 | 292 | 0.0 | 2.6 | 0.00 | 0.00 | 0.00 | 75 | 1013.3 |
| 20260506013914 | 44 | 44 | 0.0 | 2.6 | 0.00 | 0.00 | 0.00 | 74 | 1013.4 |
| 20260506012918 | 45 | 333 | 0.0 | 2.6 | 0.00 | 0.00 | 0.00 | 73 | 1013.4 |
| 20260506011912 | 45 | 345 | 0.0 | 3.5 | 0.00 | 0.00 | 0.00 | 74 | 1013.4 |
| 20260506010920 | 44 | 323 | 0.0 | 1.7 | 0.00 | 0.00 | 0.00 | 74 | 1013.3 |
| 20260506005925 | 44 | 355 | 0.0 | 0.9 | 0.00 | 0.00 | 0.00 | 74 | 1013.6 |
| 20260506004915 | 44 | 355 | 0.0 | 3.5 | 0.00 | 0.00 | 0.00 | 74 | 1013.7 |
| 20260506003929 | 44 | 360 | 0.0 | 3.5 | 0.00 | 0.00 | 0.00 | 73 | 1013.7 |
| 20260506002911 | 45 | 321 | 0.0 | 3.5 | 0.00 | 0.00 | 0.00 | 73 | 1013.7 |
| 20260506001921 | 45 | 344 | 0.0 | 1.7 | 0.00 | 0.00 | 0.00 | 72 | 1013.8 |
| 20260506000929 | 45 | 5 | 0.0 | 0.9 | 0.00 | 0.00 | 0.00 | 71 | 1013.8 |
| 20260505235917 | 46 | 355 | 0.0 | 2.6 | 0.00 | 0.00 | 0.00 | 71 | 1013.8 |
| 20260505234927 | 46 | 42 | 0.0 | 6.1 | 0.00 | 0.00 | 0.00 | 70 | 1013.8 |
| 20260505233916 | 45 | 340 | 0.9 | 6.1 | 0.00 | 0.00 | 0.00 | 72 | 1013.7 |
| 20260505232921 | 45 | 40 | 0.0 | 0.0 | 0.00 | 0.00 | 0.00 | 74 | 1013.8 |
| 20260505231910 | 45 | 42 | 0.0 | 2.6 | 0.00 | 0.00 | 0.00 | 73 | 1013.8 |
| 20260505230920 | 46 | 40 | 0.0 | 2.6 | 0.00 | 0.00 | 0.00 | 72 | 1013.8 |
| 20260505225924 | 46 | 37 | 0.0 | 3.5 | 0.00 | 0.00 | 0.00 | 72 | 1013.7 |
| 20260505224913 | 45 | 26 | 0.0 | 6.1 | 0.00 | 0.00 | 0.00 | 74 | 1013.7 |
| 20260505223927 | 45 | 27 | 0.0 | 3.5 | 0.00 | 0.00 | 0.00 | 74 | 1013.8 |
| 20260505222930 | 45 | 32 | 0.0 | 1.7 | 0.00 | 0.00 | 0.00 | 74 | 1013.8 |
| 20260505221920 | 45 | 337 | 0.0 | 4.3 | 0.00 | 0.00 | 0.00 | 74 | 1013.8 |
| 20260505220911 | 45 | 331 | 0.9 | 7.0 | 0.00 | 0.00 | 0.00 | 74 | 1013.9 |
| 20260505215920 | 45 | 311 | 0.9 | 4.3 | 0.00 | 0.00 | 0.00 | 74 | 1014.0 |
| 20260505214929 | 46 | 32 | 0.0 | 6.1 | 0.00 | 0.00 | 0.00 | 73 | 1014.0 |
| 20260505213919 | 46 | 27 | 1.7 | 7.0 | 0.00 | 0.00 | 0.00 | 73 | 1014.1 |
| 20260505212923 | 46 | 329 | 1.7 | 7.0 | 0.00 | 0.00 | 0.00 | 73 | 1014.3 |
| 20260505211916 | 46 | 34 | 0.9 | 6.1 | 0.00 | 0.00 | 0.00 | 71 | 1014.2 |
| 20260505210927 | 47 | 15 | 0.9 | 8.7 | 0.00 | 0.00 | 0.00 | 70 | 1014.2 |
| 20260505205927 | 48 | 327 | 0.9 | 9.6 | 0.00 | 0.00 | 0.00 | 68 | 1014.4 |
| 20260505204921 | 48 | 322 | 1.7 | 10.4 | 0.00 | 0.00 | 0.00 | 65 | 1014.2 |
| 20260505203912 | 49 | 355 | 1.7 | 8.7 | 0.00 | 0.00 | 0.00 | 63 | 1014.1 |